Location: Asheville, NC
(35.6000°N, 82.5500°W)
Time: 11:02:03

XW-2B - Pass Details

Date: 10 January 2018
Orbit: 511 x 530 km, 97.5° (Epoch: 23 March)

Event Time Altitude Azimuth Distance (km) Brightness Sun altitude
Rises 06:19:41 0° 16° (NNE) 2,653 ? -16.1°
Reaches altitude 10° 06:21:50 10° 21° (NNE) 1,757 ? -15.6°
Maximum altitude 06:25:33 55° 100° (E) 624 ? -14.9°
Drops below altitude 10° 06:29:14 10° 179° (S) 1,733 ? -14.2°
Sets 06:31:20 0° 184° (S) 2,612 ? -13.8°
